Вернуться в каталог

PELICAN-8 300F

АктивенНаукаSSO
NORAD 69018·PAYLOAD·🇺🇸 United States

Запущен May 3, 2026 с Vandenberg Space Force Base

Loading…

Ближайшие Пролёты (ближайшие 24 часа)

TLE

СвежийSource: CelesTrak SupGP

Эпоха: Sep 14, 2026, 18:45 UTC

1 69018C 26100R   26257.78143519  .00023548  00000+0  88939-3 0  2571
2 69018  97.3177 154.1236 0003810 113.9255 200.6598 15.27042433    12

Отслеживайте PELICAN-8 300F в реальном времени с AllMySat

Download on the App Store